Location: Newark
(46.7000°N, 60.6000°W)
Time: 11:18:40
(UTC+00:00)

A-11 Canister half - Pass Details

Date: 02 November 2020
Orbit: 1516 x 1684 km, 47.2° (Epoch: 04 December)

Event Time Altitude Azimuth Distance (km) Brightness Sun altitude
Rises 01:02:33 0° 259° (WSW) 4,933 12.2 -43.5°
Reaches altitude 10° 01:05:44 10° 259° (W) 3,940 11.5 -43.9°
Enters shadow 01:12:31 49° 261° (W) 2,055 9.6 -44.9°
